N7NKE Weather Reports


time (UTC)temp
C
wind
direction
speed
KPH
gust
KPH
rain 1hr
cm
rain 24hr
cm
rain mn
cm
humidity
%
barometer
mb
20260831172504 21 17 1.6 8.0 0.00 0.00 0.00 59 1010.6
20260831172004 21 6 3.2 4.8 0.00 0.00 0.00 60 1010.7
20260831171504 20 28 4.8 4.8 0.00 0.00 0.00 61 1010.7
20260831171004 20 20 3.2 4.8 0.00 0.00 0.00 61 1010.8
20260831170005 20 6 3.2 3.2 0.00 0.00 0.00 62 1010.9
20260831165504 20 20 1.6 4.8 0.00 0.00 0.00 63 1010.9
20260831165004 19 327 3.2 8.0 0.00 0.00 0.00 63 1011.0
20260831164504 19 11 3.2 8.0 0.00 0.00 0.00 64 1011.1
20260831164004 19 23 3.2 8.0 0.00 0.00 0.00 64 1011.2
20260831163005 18 331 3.2 4.8 0.00 0.00 0.00 64 1011.2
20260831162505 18 4 3.2 8.0 0.00 0.00 0.00 65 1011.3
20260831162004 18 0 4.8 9.7 0.00 0.00 0.00 66 1011.2
20260831161504 18 21 3.2 8.0 0.00 0.00 0.00 66 1011.3
20260831160504 18 24 3.2 8.0 0.00 0.00 0.00 68 1011.4
20260831160004 18 22 4.8 9.7 0.00 0.00 0.00 67 1011.3
20260831155504 18 352 3.2 9.7 0.00 0.00 0.00 68 1011.4
20260831155004 17 352 4.8 8.0 0.00 0.00 0.00 70 1011.4
20260831154004 16 86 1.6 3.2 0.00 0.00 0.00 74 1011.5
20260831153004 16 34 1.6 3.2 0.00 0.00 0.00 77 1011.5
20260831152504 15 13 1.6 3.2 0.00 0.00 0.00 79 1011.5
20260831152004 15 84 1.6 3.2 0.00 0.00 0.00 80 1011.6
20260831151504 14 84 1.6 3.2 0.00 0.00 0.00 81 1011.6
20260831151004 13 84 0.0 1.6 0.00 0.00 0.00 82 1011.6
20260831150504 13 85 0.0 1.6 0.00 0.00 0.00 82 1011.7
20260831150005 13 86 1.6 3.2 0.00 0.00 0.00 82 1011.7
20260831145506 13 94 1.6 3.2 0.00 0.00 0.00 82 1011.7
20260831145005 13 94 1.6 3.2 0.00 0.00 0.00 82 1011.7
20260831144505 13 94 1.6 3.2 0.00 0.00 0.00 82 1011.7
20260831144004 13 94 1.6 3.2 0.00 0.00 0.00 82 1011.8
20260831143504 12 103 1.6 3.2 0.00 0.00 0.00 82 1011.7
20260831143005 12 144 1.6 3.2 0.00 0.00 0.00 83 1011.7
20260831142504 12 144 0.0 3.2 0.00 0.00 0.00 83 1011.8
20260831142004 12 144 0.0 3.2 0.00 0.00 0.00 83 1011.7
20260831141005 12 144 0.0 3.2 0.00 0.00 0.00 82 1011.8
20260831140505 12 144 0.0 3.2 0.00 0.00 0.00 82 1011.8
20260831140005 12 144 1.6 3.2 0.00 0.00 0.00 82 1011.8
20260831135505 12 144 0.0 3.2 0.00 0.00 0.00 81 1011.7
20260831135004 12 146 0.0 3.2 0.00 0.00 0.00 81 1011.7
20260831134504 12 146 0.0 3.2 0.00 0.00 0.00 80 1011.7
20260831133504 13 123 1.6 3.2 0.00 0.00 0.00 79 1011.8
20260831133004 13 111 1.6 3.2 0.00 0.00 0.00 78 1011.7
20260831132504 13 89 1.6 3.2 0.00 0.00 0.00 77 1011.8
20260831132004 13 10 1.6 3.2 0.00 0.00 0.00 76 1011.8
20260831131504 14 46 0.0 1.6 0.00 0.00 0.00 75 1011.9
20260831131005 15 46 0.0 3.2 0.00 0.00 0.00 74 1011.9
20260831130504 15 39 0.0 1.6 0.00 0.00 0.00 73 1012.0
20260831130005 15 6 1.6 4.8 0.00 0.00 0.00 73 1011.9
20260831125504 15 347 1.6 3.2 0.00 0.00 0.00 73 1011.9
20260831125005 15 351 1.6 4.8 0.00 0.00 0.00 72 1011.9
20260831124504 15 329 1.6 4.8 0.00 0.00 0.00 73 1012.0
20260831124004 15 329 1.6 4.8 0.00 0.00 0.00 73 1012.0
20260831123504 15 328 1.6 4.8 0.00 0.00 0.00 73 1011.9
20260831123005 15 330 3.2 4.8 0.00 0.00 0.00 73 1012.0
20260831122504 15 326 3.2 4.8 0.00 0.00 0.00 73 1012.0
20260831122004 15 329 1.6 3.2 0.00 0.00 0.00 73 1012.2
20260831121504 15 325 1.6 3.2 0.00 0.00 0.00 73 1012.2
20260831121004 15 332 3.2 3.2 0.00 0.00 0.00 73 1012.2
20260831120504 15 19 0.0 3.2 0.00 0.00 0.00 72 1012.2
20260831120004 15 19 1.6 3.2 0.00 0.00 0.00 72 1012.3
20260831115004 16 326 1.6 4.8 0.00 0.00 0.00 72 1012.4
20260831114504 16 335 1.6 4.8 0.00 0.00 0.00 72 1012.4
20260831114004 16 328 1.6 3.2 0.00 0.00 0.00 72 1012.3
20260831113504 16 328 3.2 4.8 0.00 0.00 0.00 72 1012.3
20260831113004 16 354 3.2 4.8 0.00 0.00 0.00 72 1012.4
20260831112504 16 328 1.6 3.2 0.00 0.00 0.00 72 1012.4
20260831112004 16 333 3.2 4.8 0.00 0.00 0.00 72 1012.5
20260831111504 16 331 1.6 3.2 0.00 0.00 0.00 72 1012.6
20260831111004 16 324 3.2 4.8 0.00 0.00 0.00 72 1012.5
20260831110504 16 338 1.6 3.2 0.00 0.00 0.00 71 1012.5
20260831110004 16 323 1.6 3.2 0.00 0.00 0.00 71 1012.5
20260831105504 16 331 3.2 3.2 0.00 0.00 0.00 71 1012.5
20260831105004 16 325 1.6 3.2 0.00 0.00 0.00 71 1012.5
20260831104504 16 330 3.2 3.2 0.00 0.00 0.00 71 1012.5
20260831104004 16 329 3.2 4.8 0.00 0.00 0.00 71 1012.6
20260831103504 16 333 3.2 8.0 0.00 0.00 0.00 71 1012.6
20260831103004 16 327 3.2 4.8 0.00 0.00 0.00 72 1012.6
20260831102504 16 334 1.6 4.8 0.00 0.00 0.00 72 1012.7
20260831102004 16 326 3.2 4.8 0.00 0.00 0.00 72 1012.7
20260831101504 16 332 3.2 8.0 0.00 0.00 0.00 73 1012.8
20260831101004 15 327 3.2 4.8 0.00 0.00 0.00 73 1012.9
20260831100504 15 329 1.6 3.2 0.00 0.00 0.00 74 1013.0
20260831095504 15 312 1.6 4.8 0.00 0.00 0.00 73 1013.2
20260831093504 16 314 1.6 1.6 0.00 0.00 0.00 72 1013.4
20260831093004 16 313 1.6 3.2 0.00 0.00 0.00 72 1013.4
20260831092504 16 353 0.0 3.2 0.00 0.00 0.00 72 1013.4
20260831092004 16 321 1.6 3.2 0.00 0.00 0.00 72 1013.3
20260831091504 16 354 1.6 3.2 0.00 0.00 0.00 72 1013.3
20260831091004 16 353 1.6 3.2 0.00 0.00 0.00 72 1013.4
20260831090504 16 350 3.2 3.2 0.00 0.00 0.00 72 1013.5
20260831090004 16 352 1.6 3.2 0.00 0.00 0.00 71 1013.6
20260831085504 16 358 1.6 3.2 0.00 0.00 0.00 72 1013.6
20260831085004 16 318 1.6 4.8 0.00 0.00 0.00 71 1013.6
20260831084504 16 347 3.2 4.8 0.00 0.00 0.00 72 1013.7
20260831084004 16 352 1.6 3.2 0.00 0.00 0.00 72 1013.7
20260831083504 16 326 1.6 3.2 0.00 0.00 0.00 72 1013.8
20260831083004 16 331 3.2 3.2 0.00 0.00 0.00 71 1013.8
20260831082504 16 323 3.2 4.8 0.00 0.00 0.00 71 1013.9
20260831082004 17 341 1.6 4.8 0.00 0.00 0.00 71 1013.9
20260831080504 17 344 1.6 4.8 0.00 0.00 0.00 71 1014.0
20260831080004 17 320 3.2 8.0 0.00 0.00 0.00 71 1014.1
20260831075004 17 321 1.6 4.8 0.00 0.00 0.00 70 1014.3
20260831074504 17 336 3.2 4.8 0.00 0.00 0.00 70 1014.2
20260831073504 17 332 4.8 9.7 0.00 0.00 0.00 70 1014.2
20260831073004 17 333 3.2 9.7 0.00 0.00 0.00 70 1014.3
20260831072504 17 329 3.2 9.7 0.00 0.00 0.00 70 1014.3
20260831072004 17 341 3.2 9.7 0.00 0.00 0.00 70 1014.4
20260831071504 17 330 4.8 8.0 0.00 0.00 0.00 70 1014.4
20260831071004 17 331 4.8 9.7 0.00 0.00 0.00 70 1014.4
20260831070504 17 353 4.8 11.3 0.00 0.00 0.00 70 1014.4
20260831070004 17 333 4.8 9.7 0.00 0.00 0.00 70 1014.4
20260831065505 17 335 4.8 9.7 0.00 0.00 0.00 70 1014.5
20260831065004 17 319 4.8 11.3 0.00 0.00 0.00 70 1014.6
20260831064504 17 325 4.8 9.7 0.00 0.00 0.00 70 1014.7
20260831064004 17 334 4.8 8.0 0.00 0.00 0.00 70 1014.7
20260831063504 17 328 6.4 9.7 0.00 0.00 0.00 70 1014.7
20260831063004 17 330 3.2 9.7 0.00 0.00 0.00 70 1014.9
20260831062504 17 330 4.8 11.3 0.00 0.00 0.00 70 1014.9
20260831062004 17 344 4.8 12.9 0.00 0.00 0.00 70 1015.0
20260831061504 17 326 4.8 9.7 0.00 0.00 0.00 70 1015.1
20260831061004 17 335 4.8 12.9 0.00 0.00 0.00 69 1015.1
20260831060504 17 326 4.8 11.3 0.00 0.00 0.00 69 1015.1
20260831055504 17 325 6.4 12.9 0.00 0.00 0.00 69 1015.2
20260831055004 17 330 4.8 9.7 0.00 0.00 0.00 69 1015.3
20260831054504 17 320 6.4 11.3 0.00 0.00 0.00 69 1015.4
20260831054004 17 324 4.8 11.3 0.00 0.00 0.00 69 1015.3
20260831053503 17 327 8.0 11.3 0.00 0.00 0.00 68 1015.4
20260831053004 17 339 4.8 9.7 0.00 0.00 0.00 68 1015.6
20260831052504 17 326 4.8 11.3 0.00 0.00 0.00 68 1015.6
20260831052004 18 329 4.8 9.7 0.00 0.00 0.00 68 1015.7
20260831051504 18 329 6.4 14.5 0.00 0.00 0.00 67 1015.7
20260831051003 18 338 4.8 11.3 0.00 0.00 0.00 67 1015.7
20260831050503 18 334 4.8 9.7 0.00 0.00 0.00 67 1015.7
20260831050004 18 328 4.8 11.3 0.00 0.00 0.00 67 1015.8
20260831045504 18 331 6.4 9.7 0.00 0.00 0.00 67 1015.8
20260831045004 18 321 3.2 9.7 0.00 0.00 0.00 67 1015.9
20260831044004 18 321 3.2 8.0 0.00 0.00 0.00 66 1015.9
20260831043504 18 337 3.2 4.8 0.00 0.00 0.00 66 1016.0
20260831043003 18 316 4.8 12.9 0.00 0.00 0.00 66 1016.0
20260831042504 18 349 4.8 8.0 0.00 0.00 0.00 66 1016.0
20260831042004 18 330 4.8 8.0 0.00 0.00 0.00 66 1015.9
20260831041504 18 323 4.8 9.7 0.00 0.00 0.00 66 1015.9
20260831041004 18 333 4.8 12.9 0.00 0.00 0.00 66 1015.9
20260831040004 18 334 3.2 8.0 0.00 0.00 0.00 65 1016.0
20260831035504 18 322 4.8 8.0 0.00 0.00 0.00 65 1016.0
20260831035003 18 333 4.8 8.0 0.00 0.00 0.00 65 1016.0
20260831034504 18 333 3.2 4.8 0.00 0.00 0.00 65 1015.9
20260831034004 18 312 3.2 4.8 0.00 0.00 0.00 65 1016.0
20260831033504 18 328 3.2 8.0 0.00 0.00 0.00 65 1016.0
20260831033004 18 336 3.2 4.8 0.00 0.00 0.00 65 1016.0
20260831032504 18 324 3.2 4.8 0.00 0.00 0.00 64 1016.0
20260831032004 18 358 3.2 4.8 0.00 0.00 0.00 64 1016.0
20260831031504 18 324 3.2 4.8 0.00 0.00 0.00 64 1016.0
20260831030504 19 329 4.8 12.9 0.00 0.00 0.00 63 1016.0
20260831025504 19 331 4.8 9.7 0.00 0.00 0.00 62 1016.1
20260831025004 19 344 4.8 9.7 0.00 0.00 0.00 62 1016.1
20260831024504 19 328 6.4 12.9 0.00 0.00 0.00 62 1016.2
20260831024003 20 330 4.8 8.0 0.00 0.00 0.00 61 1016.1
20260831023504 20 333 4.8 11.3 0.00 0.00 0.00 60 1016.2
20260831023004 20 339 4.8 11.3 0.00 0.00 0.00 60 1016.2
20260831022504 20 339 6.4 16.1 0.00 0.00 0.00 60 1016.2
20260831022004 20 339 6.4 14.5 0.00 0.00 0.00 59 1016.3
20260831021504 20 349 9.7 19.3 0.00 0.00 0.00 58 1016.3
20260831021004 20 340 8.0 20.9 0.00 0.00 0.00 58 1016.3
20260831020503 20 336 9.7 14.5 0.00 0.00 0.00 57 1016.3
20260831015503 21 341 9.7 14.5 0.00 0.00 0.00 56 1016.3
20260831015004 21 336 9.7 16.1 0.00 0.00 0.00 56 1016.3
20260831014004 21 334 8.0 19.3 0.00 0.00 0.00 55 1016.4
20260831013504 21 333 9.7 20.9 0.00 0.00 0.00 55 1016.5
20260831013004 21 335 9.7 16.1 0.00 0.00 0.00 54 1016.4
20260831012504 22 347 8.0 16.1 0.00 0.00 0.00 53 1016.5
20260831012004 22 335 9.7 19.3 0.00 0.00 0.00 53 1016.5
20260831011504 22 332 8.0 16.1 0.00 0.00 0.00 52 1016.5
20260831011003 22 329 4.8 14.5 0.00 0.00 0.00 52 1016.5
20260831010005 22 340 9.7 19.3 0.00 0.00 0.00 52 1016.6
20260831005504 22 338 8.0 16.1 0.00 0.00 0.00 51 1016.7
20260831005005 22 340 8.0 14.5 0.00 0.00 0.00 51 1016.7
20260831004505 22 328 4.8 12.9 0.00 0.00 0.00 51 1016.7
20260831004006 22 332 9.7 16.1 0.00 0.00 0.00 50 1016.7
20260831003505 23 344 8.0 12.9 0.00 0.00 0.00 51 1016.7
20260831002505 23 358 8.0 12.9 0.00 0.00 0.00 50 1016.8
20260831002006 23 344 8.0 16.1 0.00 0.00 0.00 50 1016.8
20260831001505 23 350 6.4 14.5 0.00 0.00 0.00 50 1016.7
20260831001005 23 332 4.8 19.3 0.00 0.00 0.00 50 1016.7
20260831000505 23 343 9.7 14.5 0.00 0.00 0.00 49 1016.7
20260831000005 23 329 9.7 19.3 0.00 0.00 0.00 48 1016.7
20260830235505 23 347 4.8 9.7 0.00 0.00 0.00 48 1016.7
20260830235005 23 341 4.8 14.5 0.00 0.00 0.00 48 1016.8
20260830234506 23 325 3.2 14.5 0.00 0.00 0.00 48 1016.8
20260830234005 23 356 4.8 11.3 0.00 0.00 0.00 48 1016.9
20260830233505 23 337 6.4 11.3 0.00 0.00 0.00 48 1016.8
20260830233005 23 354 8.0 16.1 0.00 0.00 0.00 48 1016.9
20260830232505 23 331 8.0 14.5 0.00 0.00 0.00 47 1017.0
20260830231505 23 346 8.0 12.9 0.00 0.00 0.00 47 1017.1
20260830231005 23 21 4.8 9.7 0.00 0.00 0.00 48 1017.1
20260830230505 23 330 6.4 11.3 0.00 0.00 0.00 48 1017.2
20260830230005 23 10 4.8 12.9 0.00 0.00 0.00 47 1017.3
20260830225505 23 337 3.2 8.0 0.00 0.00 0.00 48 1017.5
20260830225005 23 340 4.8 12.9 0.00 0.00 0.00 48 1017.5
20260830223505 23 10 3.2 8.0 0.00 0.00 0.00 48 1017.6
20260830223005 22 20 3.2 11.3 0.00 0.00 0.00 48 1017.7
20260830222505 22 333 6.4 14.5 0.00 0.00 0.00 48 1017.9
20260830222005 23 351 8.0 14.5 0.00 0.00 0.00 47 1018.0
20260830221505 23 345 4.8 12.9 0.00 0.00 0.00 47 1018.0
20260830221005 22 325 4.8 11.3 0.00 0.00 0.00 48 1018.0
20260830220505 22 326 4.8 12.9 0.00 0.00 0.00 48 1018.1
20260830215505 23 30 4.8 12.9 0.00 0.00 0.00 47 1018.2
20260830215005 23 6 4.8 9.7 0.00 0.00 0.00 48 1018.3
20260830214005 22 327 3.2 12.9 0.00 0.00 0.00 49 1018.4
20260830213504 22 330 8.0 12.9 0.00 0.00 0.00 48 1018.4
20260830213005 22 326 4.8 12.9 0.00 0.00 0.00 48 1018.5
20260830212006 22 333 4.8 12.9 0.00 0.00 0.00 48 1018.7
20260830211006 22 12 3.2 11.3 0.00 0.00 0.00 49 1018.8
20260830210005 22 304 4.8 9.7 0.00 0.00 0.00 48 1018.8
20260830205505 21 319 3.2 11.3 0.00 0.00 0.00 49 1018.8
20260830205005 21 2 3.2 12.9 0.00 0.00 0.00 50 1018.9
20260830204005 21 322 4.8 8.0 0.00 0.00 0.00 49 1019.1
20260830203005 21 313 4.8 12.9 0.00 0.00 0.00 50 1019.0
20260830202504 21 273 6.4 12.9 0.00 0.00 0.00 50 1019.0
20260830202005 21 352 4.8 9.7 0.00 0.00 0.00 49 1019.1
20260830201505 21 44 8.0 14.5 0.00 0.00 0.00 49 1019.3
20260830200505 21 2 3.2 8.0 0.00 0.00 0.00 50 1019.3
20260830200005 21 44 3.2 9.7 0.00 0.00 0.00 51 1019.3
20260830195505 20 340 3.2 9.7 0.00 0.00 0.00 51 1019.4
20260830195005 20 32 3.2 8.0 0.00 0.00 0.00 52 1019.4
20260830193505 20 324 4.8 11.3 0.00 0.00 0.00 52 1019.6
20260830193005 20 344 4.8 11.3 0.00 0.00 0.00 54 1019.7
20260830192005 20 31 1.6 8.0 0.00 0.00 0.00 55 1019.9
20260830191505 20 357 3.2 12.9 0.00 0.00 0.00 55 1019.9
20260830191006 20 107 4.8 11.3 0.00 0.00 0.00 54 1019.9
20260830190505 20 30 8.0 12.9 0.00 0.00 0.00 55 1020.0
20260830190004 20 58 6.4 12.9 0.00 0.00 0.00 56 1020.0
20260830185005 19 0 1.6 12.9 0.00 0.00 0.00 56 1020.1
20260830184505 20 54 8.0 14.5 0.00 0.00 0.00 56 1020.1
20260830184005 19 9 3.2 11.3 0.00 0.00 0.00 58 1020.2
20260830183005 20 45 3.2 9.7 0.00 0.00 0.00 58 1020.2
20260830182505 19 135 3.2 9.7 0.00 0.00 0.00 58 1020.3
20260830182005 18 70 6.4 16.1 0.00 0.00 0.00 60 1020.3
20260830181505 18 3 3.2 8.0 0.00 0.00 0.00 61 1020.3
20260830181005 18 99 4.8 12.9 0.00 0.00 0.00 60 1020.2
20260830180504 18 59 4.8 11.3 0.00 0.00 0.00 61 1020.2
20260830180005 18 28 4.8 8.0 0.00 0.00 0.00 60 1020.3
20260830175505 18 357 4.8 8.0 0.00 0.00 0.00 60 1020.4
20260830175004 18 11 3.2 9.7 0.00 0.00 0.00 61 1020.4
20260830174505 18 336 3.2 4.8 0.00 0.00 0.00 61 1020.3
20260830174005 18 344 3.2 4.8 0.00 0.00 0.00 64 1020.3
20260830173505 18 355 6.4 9.7 0.00 0.00 0.00 64 1020.3
20260830173005 17 356 3.2 3.2 0.00 0.00 0.00 65 1020.3